Location: Alphen aan den Rijn
(52.1277°N, 4.6689°E)
Time: 15:15:42
(UTC+01:00)

Envisat - Visible Passes

Search period start: 21 January 2019 00:00
Search period end: 31 January 2019 00:00
Orbit: 764 x 766 km, 98.2° (Epoch: 20 January)

Date Brightness Start Highest point End Pass type
(mag) Time Alt. Az. Time Alt. Az. Time Alt. Az.
21 Jan 5.9 07:09:02 10° NE 07:12:36 19° E 07:16:10 10° SE visible
21 Jan 3.3 18:28:42 10° SE 18:33:29 43° ENE 18:38:17 10° N visible
21 Jan 4.6 20:08:02 10° SSW 20:12:37 33° W 20:17:14 10° NNW visible
22 Jan 4.0 17:53:01 10° ESE 17:57:02 24° ENE 18:01:04 10° N visible
22 Jan 3.4 19:30:38 10° S 19:35:41 65° WSW 19:40:46 10° NNW visible
22 Jan 6.1 21:14:42 10° W 21:15:44 11° W 21:16:47 10° WNW visible
23 Jan 5.2 07:33:59 10° NNE 07:38:26 30° E 07:42:52 10° SSE visible
23 Jan 2.9 18:53:53 10° SSE 18:58:55 67° ENE 19:03:59 10° N visible
23 Jan 5.4 20:34:36 10° SW 20:38:26 21° W 20:42:17 10° NW visible
24 Jan 6.0 06:58:15 10° NE 07:01:15 16° E 07:04:14 10° ESE visible
24 Jan 3.5 18:17:44 10° SE 18:22:21 36° ENE 18:26:58 10° N visible
24 Jan 4.3 19:56:34 10° SSW 20:01:20 40° W 20:06:09 10° NNW visible
25 Jan 3.1 19:19:22 10° SSE 19:24:27 79° WSW 19:29:34 10° NNW visible
25 Jan 6.0 21:01:57 10° WSW 21:04:20 13° W 21:06:44 10° NW visible
26 Jan 5.6 07:22:58 10° NE 07:27:07 25° E 07:31:15 10° SE visible
26 Jan 3.0 18:42:48 10° SE 18:47:45 55° ENE 18:52:43 10° N visible
26 Jan 5.1 20:22:55 10° SSW 20:27:06 26° W 20:31:20 10° NW visible
27 Jan 6.2 06:47:41 10° ENE 06:49:53 13° E 06:52:02 10° ESE visible
27 Jan 3.7 18:06:51 10° ESE 18:11:14 30° ENE 18:15:38 10° N visible
27 Jan 3.9 19:45:09 10° S 19:50:04 49° W 19:55:02 10° NNW visible
28 Jan 4.7 07:48:07 10° NNE 07:52:54 39° E 07:57:38 10° SSE visible
28 Jan 2.9 19:08:09 10° SSE 19:13:14 87° ENE 19:18:22 10° NNW visible
28 Jan 5.8 20:49:50 10° SW 20:52:58 16° W 20:56:07 10° NW visible
29 Jan 5.9 07:12:01 10° NE 07:15:48 20° E 07:19:32 10° SE visible
29 Jan 3.2 18:31:45 10° SE 18:36:35 46° ENE 18:41:27 10° N visible
29 Jan 4.8 20:11:19 10° SSW 20:15:47 31° W 20:20:18 10° NNW visible
30 Jan 4.0 17:55:59 10° ESE 18:00:07 26° ENE 18:04:16 10° N visible
30 Jan 3.5 19:33:48 10° S 19:38:49 60° W 19:43:52 10° NNW visible
